Regional Weather Roundup
Issued by NWS

Home | Current Version | Previous Version | Graphics & Text | Print | Product List | Glossary On
Versions: 1 2 3 4 5 6 7 8 9 10 11 12 13 14 15 16 17 18 19 20 21 22 23 24 25 26 27 28 29 30 31 32 33 34 35 36 37 38 39 40 41 42 43 44 45 46 47 48 49 50
000
ASUS43 KTOP 191459
RWRKS

WEATHER ROUNDUP FOR KANSAS
NATIONAL WEATHER SERVICE GOODLAND KS
900 AM CST FRI DEC 19 2014

NOTE:  "FAIR" INDICATES FEW OR NO CLOUDS BELOW 12,000 FEET WITH NO
SIGNIFICANT WEATHER AND/OR OBSTRUCTIONS TO VISIBILITY.

KSZ001>006-013>018-027>032-041>047-191600-
NORTHWEST KANSAS

CITY           SKY/WX    TMP DP  RH WIND       PRES   REMARKS
GOODLAND       CLEAR     27  22  81 W13       30.13R WCI  16
HAYS           MOSUNNY   32  25  74 SE5       30.17R
HILL CITY      FOG       28  27  96 W9        30.16R VSB 1/2
RUSSELL        CLOUDY    32  31  96 S7        30.17R FOG
$$

KSZ061>065-074>080-084>089-191600-
SOUTHWEST KANSAS

CITY           SKY/WX    TMP DP  RH WIND       PRES   REMARKS
DODGE CITY     FOG       33  31  92 S8        30.18R VSB 1/2
ELKHART          N/A    N/A N/A N/A MISG        N/A
GARDEN CITY    CLOUDY    31  30  96 SW5       30.14R
GREAT BEND     CLOUDY    32  27  80 S8        30.21R
LIBERAL        CLOUDY    37  30  75 CALM      30.18R
$$

KSZ066>073-081>083-090>101-191600-
SOUTHEAST KANSAS

CITY           SKY/WX    TMP DP  RH WIND       PRES   REMARKS
CHANUTE        CLOUDY    34  32  92 SE3       30.27S FOG
COFFEYVILLE    CLOUDY    36  34  92 N5        30.26F FOG
HUTCHINSON     CLOUDY    31  29  92 SE8       30.24R FOG
MEDICINE LODGE   N/A     33  32  96 S7        30.23S
NEWTON         CLOUDY    28  25  86 S7        30.26S VSB 1/2
PARSONS        CLOUDY    36  34  92 N5        30.27S FOG
WICHITA INTL   CLOUDY    32  29  88 S3        30.25S FOG
WICHITA JABRA  CLOUDY    30  29  96 S5        30.25S
WINFIELD       CLOUDY    32  31  96 NE3       30.26S
$$

KSZ007>012-019>026-033>040-048>060-102>105-191600-
NORTHEAST KANSAS

CITY           SKY/WX    TMP DP  RH WIND       PRES   REMARKS
CONCORDIA      CLOUDY    30  29  96 S7        30.21R FOG
EMPORIA        CLOUDY    27  26  96 SE5       30.27R
LAWRENCE       CLOUDY    31  28  89 E3        30.27S FOG
MANHATTAN      CLOUDY    30  30 100 S3        30.25R FOG
OLATHE IND     CLOUDY    31  29  92 SE3       30.26S FOG
OLATHE EXE     CLOUDY    31  29  92 E6        30.25R FOG
SALINA         CLOUDY    30  28  92 S10       30.25R FOG     WCI  21
TOPEKA BILLARD CLOUDY    30  29  96 CALM      30.27S FOG
TOPEKA FORBES  CLOUDY    31  28  89 CALM      30.26R FOG
$$


USA.gov is the U.S. government's official web portal to all federal, state and local government web resources and services.